Theta_e
343 343 341 338 339 341 341 342 342 341 340 342 342 344 345 346 346 346 347 347 347 347 346 346 346 346 346 346 348 350 351 350 352 351 350 349 350 348 347 348 348 348
343 345 345 340 337 337 338 337 338 339 337 337 337 338 338 340 341 343 346 347 347 348 348 348 348 347 346 345 347 350 351 351 351 353 351 349 348 347 348 350 350 349
345 347 346 342 339 337 337 336 336 337 336 335 335 337 338 340 342 346 347 348 349 348 349 349 349 348 346 346 347 350 351 353 354 354 352 350 349 349 350 352 352 351
348 349 346 344 343 342 341 343 343 343 343 343 345 347 347 347 348 351 352 352 350 348 347 349 350 349 347 348 349 351 353 354 354 354 352 353 355 355 354 354 355 353
349 348 349 349 351 350 351 353 354 355 356 357 357 357 356 356 356 356 356 354 349 346 347 349 349 348 349 350 351 352 353 352 352 352 353 356 358 358 357 356 356 354
349 348 349 352 354 356 359 360 360 361 361 360 359 359 357 354 354 353 352 351 350 350 352 353 354 355 356 356 355 356 355 355 354 353 353 355 355 355 355 354 352 350
350 348 349 351 353 357 361 362 360 358 357 355 353 354 353 352 355 356 355 355 356 358 359 359 359 359 359 359 359 359 358 356 355 353 353 353 352 352 353 352 349 346
349 350 351 353 355 358 360 359 358 356 354 354 354 357 359 359 360 361 360 360 361 361 360 359 357 357 357 357 357 356 356 355 353 352 352 350 349 348 348 347 344 342
352 353 354 356 356 357 358 359 359 359 358 357 359 361 361 361 360 359 359 358 358 357 355 353 351 351 351 350 350 350 350 352 350 348 346 344 342 341 341 340 339 337
354 356 356 356 357 359 360 362 361 362 360 360 360 360 358 358 357 356 355 355 353 351 349 347 345 344 343 342 341 340 341 342 343 341 338 337 335 335 335 335 335 335
357 360 360 359 360 360 361 360 360 359 360 359 358 357 355 354 353 352 352 350 347 344 342 341 339 338 337 336 335 335 334 334 335 335 334 333 332 331 331 331 330 331
360 363 363 362 361 360 360 359 358 357 357 355 354 353 351 350 349 347 346 344 342 340 339 337 335 334 333 332 331 331 330 330 330 330 331 330 330 329 328 327 327 328
363 363 362 361 360 359 358 357 356 355 353 351 350 349 347 346 345 343 342 340 338 337 335 333 332 331 330 329 329 328 328 328 328 327 327 327 326 325 325 325 327 328
362 361 360 358 357 356 355 354 353 351 349 348 346 345 343 342 341 340 338 337 336 334 333 332 331 329 328 327 327 327 326 326 325 324 323 323 322 323 323 325 326 327
360 358 357 356 354 353 352 350 349 347 346 344 343 341 339 339 338 337 336 335 334 333 331 331 330 328 326 325 325 324 324 323 323 322 322 321 322 322 323 324 324 325
358 355 355 353 352 350 348 347 346 344 343 341 339 338 338 337 336 336 335 334 333 332 330 329 328 325 324 324 323 322 322 321 321 320 320 321 321 322 322 322 323 323
355 353 351 350 348 347 345 344 342 341 339 338 337 337 336 336 335 334 333 332 331 330 328 326 325 324 323 323 322 321 321 321 320 320 320 320 321 321 321 321 322 322
352 350 349 347 345 344 342 341 339 337 337 337 336 335 334 334 333 331 330 328 327 327 325 324 324 323 323 321 321 321 321 320 320 320 320 321 321 321 322 322 322 322
349 348 346 343 342 341 339 338 336 335 336 335 334 333 332 330 328 327 326 325 325 325 324 324 324 323 321 320 320 321 321 321 321 321 321 321 322 322 322 322 323 322
346 345 342 340 338 337 335 335 335 335 334 334 332 331 329 327 325 324 325 325 325 324 324 324 322 320 320 320 321 321 322 322 322 322 322 322 322 323 323 324 324 323
344 342 339 337 336 335 334 334 333 333 332 331 330 328 326 325 324 324 325 325 325 324 324 323 320 319 320 321 321 322 322 323 323 323 323 323 323 324 324 324 324 324
342 339 337 336 335 335 335 333 331 330 329 328 327 326 324 324 324 325 326 325 324 323 322 320 319 320 321 321 322 323 323 323 323 324 324 324 324 325 325 325 325 325
339 337 335 334 334 334 334 331 329 328 327 326 325 325 324 325 324 324 324 324 324 323 321 320 321 321 322 322 323 323 323 323 324 324 324 325 325 325 326 325 325 325
337 336 335 333 332 332 330 329 328 327 326 325 325 324 325 324 322 321 320 321 323 322 321 321 322 322 322 323 323 323 323 323 323 323 324 324 325 326 326 325 325 325
336 335 334 332 331 330 328 328 327 326 325 325 324 324 323 321 319 317 317 319 321 322 322 322 322 322 322 323 323 323 324 324 324 324 324 324 325 325 326 326 325 324
334 333 332 331 329 329 328 327 326 325 325 325 324 322 320 318 317 317 319 320 321 322 322 321 321 321 321 321 322 323 324 324 325 324 324 324 325 325 326 326 326 325
Wind_Speed
29 28 27 26 27 27 27 26 26 25 25 23 22 22 24 25 26 27 29 31 31 31 31 31 31 31 30 30 31 32 32 32 31 29 29 29 30 29 29 28 25 24
30 27 27 26 27 27 27 28 28 28 27 27 26 26 27 28 28 29 31 32 33 33 33 33 32 32 31 30 30 32 33 33 32 32 31 31 30 30 30 28 25 23
30 28 27 27 27 27 27 27 27 27 27 27 28 28 29 29 30 31 32 33 33 34 33 32 32 31 29 27 29 31 32 33 32 32 31 30 29 28 28 27 24 20
30 28 27 27 26 26 25 26 26 26 26 27 28 28 29 29 29 29 29 29 28 28 29 29 27 25 23 23 25 26 28 29 28 26 24 23 22 22 23 23 19 12
29 27 27 26 25 25 25 25 26 26 27 28 28 28 28 28 29 28 26 24 21 19 19 19 16 14 14 15 15 16 18 19 18 16 14 14 13 14 17 17 14 10
29 27 26 26 25 25 26 26 27 27 26 25 24 22 20 20 20 18 14 10 7 5 5 4 3 3 4 5 6 8 9 10 10 9 8 8 9 11 13 14 13 10
29 28 27 26 25 26 27 27 26 23 19 17 14 10 7 5 3 2 3 4 4 5 5 4 4 5 5 4 3 2 3 5 6 8 8 9 12 13 14 14 14 11
29 28 26 26 26 27 26 23 18 12 9 8 7 7 6 5 6 6 6 6 7 7 7 7 7 7 7 6 6 5 5 5 8 9 9 10 12 13 13 14 14 13
29 25 22 20 19 17 14 10 8 8 10 10 11 10 8 8 7 7 7 7 8 9 9 9 10 10 9 9 8 8 7 6 7 9 10 11 11 12 12 13 14 14
25 19 15 10 8 9 11 13 13 13 12 11 11 10 10 9 9 8 8 8 9 10 11 11 12 12 11 11 11 10 10 8 8 9 10 10 11 11 12 14 15 15
17 13 12 12 13 15 16 15 14 13 12 12 11 11 11 10 10 9 9 10 11 12 12 12 12 12 12 12 12 12 12 11 11 11 12 13 14 15 15 15 15 16
13 14 15 16 16 17 16 15 14 13 12 12 11 11 11 10 10 11 11 12 13 12 12 13 13 13 13 14 14 14 14 14 15 15 16 17 17 18 17 16 16 15
15 17 18 19 19 18 16 15 14 13 13 13 12 12 12 11 12 13 13 13 13 13 13 13 13 14 16 16 17 17 17 18 19 19 19 18 18 18 17 16 15 14
20 20 21 21 20 19 18 16 15 14 14 13 12 12 13 13 13 13 13 13 13 13 14 14 14 16 18 19 19 20 21 21 22 21 20 18 16 15 15 14 13 13
23 22 21 21 20 19 18 17 16 15 14 14 13 14 14 14 14 14 13 13 13 14 14 15 16 18 20 21 21 22 23 22 21 18 16 14 14 14 14 13 12 12
24 23 22 20 19 19 18 17 16 15 14 14 15 15 15 15 14 14 14 14 14 14 14 15 17 19 20 21 22 23 22 20 17 14 12 12 12 13 14 13 12 12
24 23 22 21 20 19 18 16 15 15 15 15 15 15 15 14 14 14 14 13 13 14 14 16 17 19 20 22 23 23 20 17 15 13 12 11 12 14 15 15 15 14
25 23 22 22 20 19 17 16 16 16 16 16 16 15 14 14 14 14 13 13 13 13 14 15 17 19 20 22 22 19 17 15 13 13 13 13 14 15 16 16 16 15
25 24 23 22 20 18 17 16 16 16 16 16 16 15 14 15 15 14 13 13 12 13 13 14 16 18 19 20 19 16 16 15 13 13 13 14 15 16 16 16 16 16
25 24 23 21 19 18 17 17 17 17 16 16 15 15 15 15 15 14 13 12 11 11 12 14 16 18 19 18 16 16 16 15 14 14 14 15 15 16 16 16 16 15
25 24 23 22 20 19 19 18 18 18 17 16 15 15 15 15 15 14 12 11 10 11 12 14 16 17 17 16 16 17 17 16 15 15 16 16 16 16 16 16 16 15
25 25 24 23 21 20 20 20 20 19 17 16 15 16 16 16 16 14 12 11 10 11 12 15 16 16 15 16 18 18 19 18 18 18 18 18 18 18 18 17 17 14
25 25 24 23 21 21 22 21 20 19 17 16 17 18 17 16 15 13 12 11 10 12 14 14 15 16 16 18 19 19 20 20 20 20 20 20 19 19 19 18 17 14
25 24 24 23 23 23 23 22 20 18 17 17 18 19 18 16 14 12 12 11 11 12 14 15 16 17 17 18 19 20 20 21 22 22 22 20 20 19 19 19 18 15
24 23 24 24 24 23 22 21 20 19 19 18 19 19 18 15 14 14 14 13 13 14 16 17 17 17 17 17 18 19 20 21 22 23 23 22 20 19 19 20 18 16
24 24 25 25 24 23 22 21 20 20 20 20 20 19 17 15 15 17 17 16 16 17 17 16 16 15 15 15 15 15 16 18 21 23 23 22 21 19 19 20 19 17
Wind_Direction
226 230 231 229 226 228 232 237 242 246 249 250 250 248 248 249 251 252 252 254 258 260 262 262 260 258 257 259 258 256 256 258 259 261 257 253 252 253 256 256 251 251
226 230 232 232 230 231 233 236 241 247 251 252 253 254 254 256 257 257 260 263 266 268 268 265 261 258 258 259 258 256 256 256 258 261 258 255 255 255 260 261 251 247
225 229 231 233 232 233 235 239 244 249 252 254 255 256 258 259 261 262 264 267 269 271 271 268 262 259 258 258 257 256 256 257 261 262 260 259 260 263 266 262 253 247
224 228 231 233 235 237 239 243 247 249 251 253 255 257 260 263 266 269 272 273 274 275 272 267 263 261 259 260 261 260 259 260 263 264 266 266 267 268 265 261 268 283
224 229 232 234 237 240 243 247 250 252 254 256 260 264 268 270 271 274 277 278 278 276 270 264 261 259 257 258 260 261 261 261 263 266 269 270 270 268 264 271 299 339
225 229 232 236 240 243 247 250 255 258 261 265 269 271 271 270 271 272 272 271 267 261 250 243 239 245 260 265 258 259 260 262 273 282 282 289 296 287 281 295 320 351
225 229 232 237 241 245 248 253 258 261 263 264 259 251 245 238 227 175 148 143 127 119 116 108 93 81 64 41 21 353 306 301 323 328 322 324 324 312 304 312 325 344
225 229 233 239 245 248 251 254 255 249 230 210 181 156 143 137 125 115 117 121 114 108 99 87 76 69 66 59 48 30 0 348 1 4 357 353 350 341 331 331 339 349
225 230 235 241 244 244 239 225 195 164 155 150 138 130 124 117 112 112 110 108 103 96 87 79 72 68 66 63 57 43 26 9 5 12 19 17 10 2 351 342 345 350
222 224 222 213 188 161 144 137 133 129 128 129 126 121 113 107 103 104 104 101 95 87 81 75 69 66 63 60 54 46 38 25 8 4 8 7 359 353 346 338 335 337
209 196 183 163 141 129 125 122 120 118 114 114 115 109 104 101 98 95 94 91 86 79 74 69 63 57 53 48 41 32 27 18 6 355 346 343 340 336 334 332 330 326
183 162 152 141 130 124 120 117 114 112 108 104 104 101 97 93 90 88 86 84 80 74 69 63 56 49 41 35 27 18 11 4 357 349 340 334 330 328 328 328 327 324
158 146 137 130 126 122 119 115 111 107 102 97 95 93 89 87 88 88 85 81 76 69 63 54 46 38 31 24 17 9 2 357 350 345 339 334 328 325 325 325 326 328
142 136 131 127 123 119 115 111 107 101 97 93 89 87 85 85 87 87 84 80 72 64 56 46 36 30 23 14 7 0 354 348 343 340 336 332 330 328 325 325 327 331
134 130 126 123 119 116 111 106 101 97 95 91 86 84 84 85 86 84 81 75 66 58 48 36 29 25 18 10 3 357 351 345 342 341 340 337 336 335 332 330 332 333
130 126 123 120 116 111 107 104 100 97 92 88 86 84 83 84 82 77 72 64 55 45 34 27 24 21 15 8 3 357 352 348 347 347 349 349 347 344 341 340 341 341
127 124 120 116 113 110 107 104 100 95 91 89 88 85 82 80 75 68 62 52 41 33 27 26 24 19 13 6 1 359 357 356 358 1 3 5 359 353 349 346 344 345
125 123 118 114 111 109 106 104 100 97 94 92 89 84 80 75 69 63 55 43 34 31 30 29 24 17 9 5 4 7 10 11 15 19 16 10 3 356 350 346 342 341
125 122 117 114 112 110 107 106 103 99 96 93 90 87 81 73 66 61 53 43 37 34 32 29 21 12 7 9 12 16 19 20 23 22 15 8 3 358 352 347 343 340
126 122 118 115 114 112 109 106 103 101 99 99 97 90 80 71 65 60 56 52 46 39 34 27 18 11 10 15 17 15 16 19 19 18 15 11 7 3 357 350 346 343
127 124 121 119 117 114 112 109 106 106 106 103 96 86 78 73 69 67 67 64 54 43 35 25 18 16 17 17 16 15 18 21 21 21 18 14 13 9 3 357 353 347
131 128 125 123 121 118 115 114 113 112 109 102 94 88 84 80 77 75 75 72 59 43 33 27 26 25 23 21 21 23 25 27 27 26 21 17 17 14 9 5 360 352
134 130 126 124 123 121 121 121 118 115 109 103 98 94 89 85 83 80 76 72 60 41 34 36 39 36 31 29 28 27 26 25 26 26 23 21 20 17 13 10 8 9
134 130 126 126 126 125 125 123 119 114 111 107 102 98 96 93 89 81 72 69 63 50 47 51 50 44 38 33 29 26 25 23 24 26 25 23 21 19 18 18 21 23
132 129 130 131 131 129 127 123 119 117 114 110 105 103 102 96 85 76 72 70 72 69 63 58 51 43 38 32 27 27 26 24 24 25 25 23 21 19 21 26 31 31
132 133 135 136 133 130 128 125 122 121 118 113 110 108 103 92 82 79 78 76 77 73 64 56 49 43 38 32 26 23 24 26 28 27 25 25 24 22 24 28 32 34